Regional Weather Roundup
Issued by NWS Newport/Morehead, NC

Current Version | Previous Version | Text Only | Print | Product List | Glossary On
Versions: 1 2 3 4 5 6 7 8 9 10 11 12 13 14 15 16 17 18 19 20 21 22 23 24 25 26 27 28 29 30 31 32 33 34 35 36 37 38 39 40 41 42 43 44 45 46 47 48 49 50
000
ASUS42 KMHX 280210
RWRMHX
WEATHER ROUNDUP FOR EASTERN NORTH CAROLINA
NATIONAL WEATHER SERVICE NEWPORT/MOREHEAD CITY NC
1000 PM EDT WED AUG 27 2014

NOTE: "FAIR" INDICATES FEW OR NO CLOUDS BELOW 12,000 FEET
WITH NO SIGNIFICANT WEATHER AND/OR OBSTRUCTIONS TO VISIBILITY

NCZ015>017-031-032-045>047-102-103-280300-
NORTH COAST

CITY           SKY/WX    TMP DP  RH WIND       PRES   REMARKS
EDENTON        CLEAR     70  67  90 CALM      29.95R
ELIZABETH CITY CLEAR     66  64  93 W3        29.94S
KITTY HAWK     CLEAR     71  68  90 CALM      29.91F
MANTEO         CLEAR     71  67  88 N5        29.92F

$$

NCZ045>047-081-094-103-104-280300-
CENTRAL COAST

CITY           SKY/WX    TMP DP  RH WIND       PRES   REMARKS
FRISCO         CLEAR     74  66  76 VRB7      29.92S
SWANQUARTER      N/A     72 N/A N/A N1        29.91S

$$

NCZ095-097-098-100-101-280300-
SOUTHERN COAST

CITY           SKY/WX    TMP DP  RH WIND       PRES   REMARKS
BEAUFORT       CLEAR     77  71  82 N5        29.95R
CEDAR ISLAND     N/A     77 N/A N/A N13       29.97S
JACKSONVILLE   CLEAR     73  66  78 NW6       29.96S
NEWPORT        NOT AVBL
PINEY ISLAND   CLEAR     79  73  82 N7        29.94R
WILMINGTON     CLEAR     75  63  66 N5        29.98R


$$

NCZ011>013-027>030-043-044-078>080-089-090>093-098-280300-
COASTAL PLAIN

CITY           SKY/WX    TMP DP  RH WIND       PRES   REMARKS
AHOSKIE        CLEAR     65  62  90 CALM      29.96S
CLINTON        CLEAR     67  65  93 CALM      29.99R
ELIZABETHTOWN  CLEAR     70  60  71 CALM      29.99S
GOLDSBORO      CLEAR     70  66  86 SW1       29.97R
GREENVILLE     CLEAR     68  68 100 CALM      29.98S
HAVELOCK       CLEAR     77  67  71 W6        29.96R
KENANSVILLE    CLEAR     64  61  88 CALM      29.99R
KINSTON        NOT AVBL
NEW BERN       CLEAR     75  67  76 W3        29.97R
RICHLANDS      CLEAR     70  63  78 CALM      29.97S
ROANOKE RAPIDS NOT AVBL
ROCKY MOUNT    CLEAR     65  64  97 CALM      29.98R
WASHINGTON     CLEAR     69  66  90 CALM      29.96S
WHITEVILLE     CLEAR     69  65  89 CALM      29.98S

$$

AMZ130-135-150-152-154-156-158-170-250-252-270-ANZ085-086-088-633-658-670-280300-
MARINE OBSERVATIONS

STATION/POSITION TIME  TEMP    WIND        PRES    WAVE   SWELL
                       AIR SEA DIR/SP/G            HT/PER HT/PER
                 (UTC) (F)     (DEG/KT/KT) (MB)    (FT/S) (FT/S)
CHESAPEAKE LIGHT 0100   73      CALM  /  2 1014.1
BUOY 44014       0200   76 78  360/ 10/ 14 1012.1   10/13  10/13
DUCK             0200   74 77  340/  8/  9 1012.5
2E DUCK          0200                        N/A     6/13   3/13
OREGON INLET     0200   72 79  340/  5/  7 1013.0
BUOY 44095       0200      76                N/A     9/13   5/13
20E OREGON INLET NOT AVBL
HATTERAS CG      0200   77 80  360/ 14/ 16 1013.5
DIAMOND BUOY     0200   75     340/ 17/ 23 1012.4   10/13   8/13
CAPE LOOKOUT     0100   79      10/  7/  9 1013.7
BEAUFORT LAB     0200   78 80  350/  3/  5 1013.7
30 SE NEW RIVER  0200   80 80   10/  6/ 10 1014.6    6/13   5/13
5 SE WRIGHTSVILL 0200   77 81  340/ 12/ 14   N/A
BUOY 41002       0111   81 81  330/ 14/ 16 1013.3    9/ 9   8/ 9
BUOY 41004       0200   81 82  220/  2/  4 1015.4    6/11   5/11

$$



USA.gov is the U.S. government's official web portal to all federal, state and local government web resources and services.